Time,TemperatureF,DewpointF,PressureIn,WindDirection,WindDirectionDegrees,WindSpeedMPH,WindSpeedGustMPH,Humidity,HourlyPrecipIn,Conditions,Clouds,dailyrainin,SolarRadiationWatts/m^2,SoftwareType,DateUTC
2013-01-01 00:02:00,20.7,16.4,30.31,NNW,335,2.0,2.0,83,0.00,,---,0.00,0.00,VWS V14.01,2013-01-01 06:02:00,
2013-01-01 00:07:00,20.7,16.6,30.31,NNW,334,0.0,0.0,84,0.00,,---,0.00,0.00,VWS V14.01,2013-01-01 06:07:00,
2013-01-01 00:12:00,20.7,16.4,30.31,NE,48,0.0,2.0,83,0.00,,---,0.00,0.00,VWS V14.01,2013-01-01 06:12:00,
2013-01-01 00:17:00,20.7,16.6,30.30,NE,51,0.0,7.0,84,0.00,,---,0.00,0.00,VWS V14.01,2013-01-01 06:17:00,
2013-01-01 00:22:00,20.7,16.4,30.30,NNW,336,4.0,4.0,83,0.00,,---,0.00,0.00,VWS V14.01,2013-01-01 06:22:00,
2013-01-01 00:27:00,20.6,16.3,30.30,North,5,3.0,5.0,83,0.00,,---,0.00,0.00,VWS V14.01,2013-01-01 06:27:00,
2013-01-01 00:32:00,20.5,16.2,30.30,North,5,2.0,3.0,83,0.00,,---,0.00,0.00,VWS V14.01,2013-01-01 06:32:00,
2013-01-01 00:37:00,20.5,16.2,30.30,NNE,19,2.0,3.0,83,0.00,,---,0.00,0.00,VWS V14.01,2013-01-01 06:37:00,
2013-01-01 00:42:00,20.5,16.2,30.31,North,5,0.0,3.0,83,0.00,,---,0.00,0.00,VWS V14.01,2013-01-01 06:42:00,
2013-01-01 00:47:00,20.4,16.1,30.31,NNE,19,0.0,0.0,83,0.00,,---,0.00,0.00,VWS V14.01,2013-01-01 06:47:00,
2013-01-01 00:52:00,20.4,16.1,30.31,NNE,17,0.0,0.0,83,0.00,,---,0.00,0.00,VWS V14.01,2013-01-01 06:52:00,
2013-01-01 00:57:00,20.4,16.1,30.31,NNE,15,0.0,0.0,83,0.00,,---,0.00,0.00,VWS V14.01,2013-01-01 06:57:00,
2013-01-01 01:02:00,20.4,16.4,30.32,NNE,15,0.0,2.0,84,0.00,,---,0.00,0.00,VWS V14.01,2013-01-01 07:02:00,
2013-01-01 01:07:00,20.4,16.4,30.31,North,11,0.0,0.0,84,0.00,,---,0.00,0.00,VWS V14.01,2013-01-01 07:07:00,
2013-01-01 01:12:00,20.4,16.4,30.32,North,11,0.0,0.0,84,0.00,,---,0.00,0.00,VWS V14.01,2013-01-01 07:12:00,
2013-01-01 01:17:00,20.4,16.4,30.32,North,360,0.0,2.0,84,0.00,,---,0.00,0.00,VWS V14.01,2013-01-01 07:17:00,
2013-01-01 01:22:00,20.4,16.4,30.32,NNW,346,0.0,0.0,84,0.00,,---,0.00,0.00,VWS V14.01,2013-01-01 07:22:00,
2013-01-01 01:27:00,20.4,16.4,30.32,NNW,347,0.0,1.0,84,0.00,,---,0.00,0.00,VWS V14.01,2013-01-01 07:27:00,
2013-01-01 01:32:00,20.4,16.4,30.31,North,349,0.0,0.0,84,0.00,,---,0.00,0.00,VWS V14.01,2013-01-01 07:32:00,
2013-01-01 01:36:00,20.3,16.2,30.31,North,349,0.0,3.0,84,0.00,,---,0.00,0.00,VWS V14.01,2013-01-01 07:36:00,
2013-01-01 01:41:00,20.3,16.2,30.31,NNW,340,3.0,4.0,84,0.00,,---,0.00,0.00,VWS V14.01,2013-01-01 07:41:00,
2013-01-01 01:46:00,20.3,16.2,30.32,NNE,18,0.0,0.0,84,0.00,,---,0.00,0.00,VWS V14.01,2013-01-01 07:46:00,
2013-01-01 01:51:00,20.3,16.2,30.32,NNE,17,0.0,0.0,84,0.00,,---,0.00,0.00,VWS V14.01,2013-01-01 07:51:00,
2013-01-01 01:56:00,20.3,16.2,30.32,North,360,3.0,3.0,84,0.00,,---,0.00,0.00,VWS V14.01,2013-01-01 07:56:00,
2013-01-01 02:01:00,20.3,16.2,30.32,NNE,29,0.0,3.0,84,0.00,,---,0.00,0.00,VWS V14.01,2013-01-01 08:01:00,
2013-01-01 02:06:00,20.4,16.4,30.32,NNW,338,0.0,4.0,84,0.00,,---,0.00,0.00,VWS V14.01,2013-01-01 08:06:00,
2013-01-01 02:11:00,20.3,16.2,30.32,North,360,0.0,3.0,84,0.00,,---,0.00,0.00,VWS V14.01,2013-01-01 08:11:00,
2013-01-01 02:16:00,20.3,16.0,30.33,North,360,0.0,3.0,83,0.00,,---,0.00,0.00,VWS V14.01,2013-01-01 08:16:00,
2013-01-01 02:21:00,20.4,16.1,30.33,North,360,2.0,3.0,83,0.00,,---,0.00,0.00,VWS V14.01,2013-01-01 08:21:00,
2013-01-01 02:26:00,20.4,16.1,30.33,North,360,0.0,0.0,83,0.00,,---,0.00,0.00,VWS V14.01,2013-01-01 08:26:00,
2013-01-01 02:31:00,20.4,16.4,30.34,North,360,0.0,2.0,84,0.00,,---,0.00,0.00,VWS V14.01,2013-01-01 08:31:00,
2013-01-01 02:36:00,20.4,16.4,30.33,NNW,333,0.0,0.0,84,0.00,,---,0.00,0.00,VWS V14.01,2013-01-01 08:36:00,
2013-01-01 02:41:00,20.3,16.2,30.33,NNW,332,0.0,0.0,84,0.00,,---,0.00,0.00,VWS V14.01,2013-01-01 08:41:00,
2013-01-01 02:46:00,20.3,16.2,30.34,NNW,344,2.0,2.0,84,0.00,,---,0.00,0.00,VWS V14.01,2013-01-01 08:46:00,
2013-01-01 02:51:00,20.3,16.2,30.34,NNW,344,0.0,0.0,84,0.00,,---,0.00,0.00,VWS V14.01,2013-01-01 08:51:00,
2013-01-01 02:56:00,20.2,16.4,30.33,NNW,346,0.0,2.0,85,0.00,,---,0.00,0.00,VWS V14.01,2013-01-01 08:56:00,
2013-01-01 03:01:00,20.1,16.3,30.33,North,360,0.0,0.0,85,0.00,,---,0.00,0.00,VWS V14.01,2013-01-01 09:01:00,
2013-01-01 03:06:00,20.1,16.0,30.34,North,355,0.0,0.0,84,0.00,,---,0.00,0.00,VWS V14.01,2013-01-01 09:06:00,
2013-01-01 03:11:00,20.1,16.0,30.34,North,355,0.0,0.0,84,0.00,,---,0.00,0.00,VWS V14.01,2013-01-01 09:11:00,
2013-01-01 03:16:00,20.1,16.0,30.33,North,360,0.0,4.0,84,0.00,,---,0.00,0.00,VWS V14.01,2013-01-01 09:16:00,
2013-01-01 03:21:00,20.0,15.9,30.33,North,360,0.0,0.0,84,0.00,,---,0.00,0.00,VWS V14.01,2013-01-01 09:21:00,
2013-01-01 03:26:00,19.9,15.9,30.33,NNW,333,4.0,4.0,84,0.00,,---,0.00,0.00,VWS V14.01,2013-01-01 09:26:00,
2013-01-01 03:31:00,19.8,16.0,30.34,North,5,0.0,0.0,85,0.00,,---,0.00,0.00,VWS V14.01,2013-01-01 09:31:00,
2013-01-01 03:36:00,19.7,15.9,30.34,North,360,0.0,0.0,85,0.00,,---,0.00,0.00,VWS V14.01,2013-01-01 09:36:00,
2013-01-01 03:41:00,19.7,15.7,30.33,NNW,331,2.0,3.0,84,0.00,,---,0.00,0.00,VWS V14.01,2013-01-01 09:41:00,
2013-01-01 03:46:00,19.5,15.5,30.33,NNW,340,0.0,0.0,84,0.00,,---,0.00,0.00,VWS V14.01,2013-01-01 09:46:00,
2013-01-01 03:51:00,19.4,17.5,30.34,North,355,1.0,4.0,92,0.00,,---,0.00,0.00,VWS V14.01,2013-01-01 09:51:00,
2013-01-01 03:56:00,19.3,15.3,30.34,North,360,2.0,2.0,84,0.00,,---,0.00,0.00,VWS V14.01,2013-01-01 09:56:00,
2013-01-01 04:01:00,19.2,15.2,30.35,NNW,329,1.0,4.0,84,0.00,,---,0.00,0.00,VWS V14.01,2013-01-01 10:01:00,
2013-01-01 04:06:00,19.0,15.0,30.35,NNW,341,0.0,0.0,84,0.00,,---,0.00,0.00,VWS V14.01,2013-01-01 10:06:00,
2013-01-01 04:11:00,18.9,14.9,30.35,NNW,347,0.0,0.0,84,0.00,,---,0.00,0.00,VWS V14.01,2013-01-01 10:11:00,
2013-01-01 04:16:00,18.8,14.8,30.35,NNW,342,0.0,2.0,84,0.00,,---,0.00,0.00,VWS V14.01,2013-01-01 10:16:00,
2013-01-01 04:21:00,18.6,14.6,30.35,NNW,344,0.0,0.0,84,0.00,,---,0.00,0.00,VWS V14.01,2013-01-01 10:21:00,
2013-01-01 04:26:00,18.4,14.4,30.36,North,11,0.0,3.0,84,0.00,,---,0.00,0.00,VWS V14.01,2013-01-01 10:26:00,
2013-01-01 04:31:00,18.2,14.2,30.36,North,11,0.0,0.0,84,0.00,,---,0.00,0.00,VWS V14.01,2013-01-01 10:31:00,
2013-01-01 04:36:00,18.1,14.1,30.36,North,11,0.0,0.0,84,0.00,,---,0.00,0.00,VWS V14.01,2013-01-01 10:36:00,
2013-01-01 04:41:00,18.1,14.1,30.36,North,11,1.0,2.0,84,0.00,,---,0.00,0.00,VWS V14.01,2013-01-01 10:41:00,
2013-01-01 04:46:00,18.0,14.0,30.35,North,360,2.0,3.0,84,0.00,,---,0.00,0.00,VWS V14.01,2013-01-01 10:46:00,
2013-01-01 04:51:00,17.9,13.9,30.35,NW,315,0.0,2.0,84,0.00,,---,0.00,0.00,VWS V14.01,2013-01-01 10:51:00,
2013-01-01 04:56:00,17.8,14.1,30.35,NW,325,0.0,3.0,85,0.00,,---,0.00,0.00,VWS V14.01,2013-01-01 10:56:00,
2013-01-01 05:01:00,17.7,14.0,30.35,NNW,334,0.0,3.0,85,0.00,,---,0.00,0.00,VWS V14.01,2013-01-01 11:01:00,
2013-01-01 05:06:00,17.6,13.9,30.35,North,355,3.0,4.0,85,0.00,,---,0.00,0.00,VWS V14.01,2013-01-01 11:06:00,
2013-01-01 05:11:00,17.4,13.7,30.35,NNW,328,0.0,4.0,85,0.00,,---,0.00,0.00,VWS V14.01,2013-01-01 11:11:00,
2013-01-01 05:16:00,17.2,13.5,30.34,NNW,348,3.0,6.0,85,0.00,,---,0.00,0.00,VWS V14.01,2013-01-01 11:16:00,
2013-01-01 05:21:00,17.1,13.1,30.34,NNW,345,3.0,4.0,84,0.00,,---,0.00,0.00,VWS V14.01,2013-01-01 11:21:00,
2013-01-01 05:26:00,16.9,12.9,30.34,North,11,0.0,0.0,84,0.00,,---,0.00,0.00,VWS V14.01,2013-01-01 11:26:00,
2013-01-01 05:31:00,16.8,12.8,30.34,NNW,345,0.0,4.0,84,0.00,,---,0.00,0.00,VWS V14.01,2013-01-01 11:31:00,
2013-01-01 05:36:00,16.7,12.7,30.34,NNW,337,6.0,6.0,84,0.00,,---,0.00,0.00,VWS V14.01,2013-01-01 11:36:00,
2013-01-01 05:41:00,16.5,12.5,30.34,NNE,25,1.0,2.0,84,0.00,,---,0.00,0.00,VWS V14.01,2013-01-01 11:41:00,
2013-01-01 05:46:00,16.3,12.3,30.34,NW,321,0.0,0.0,84,0.00,,---,0.00,0.00,VWS V14.01,2013-01-01 11:46:00,
2013-01-01 05:51:00,16.2,12.2,30.34,NW,322,0.0,1.0,84,0.00,,---,0.00,0.00,VWS V14.01,2013-01-01 11:51:00,
2013-01-01 05:56:00,16.0,12.0,30.35,NNW,335,3.0,4.0,84,0.00,,---,0.00,0.00,VWS V14.01,2013-01-01 11:56:00,
2013-01-01 06:01:00,15.9,11.9,30.34,North,350,0.0,3.0,84,0.00,,---,0.00,0.00,VWS V14.01,2013-01-01 12:01:00,
2013-01-01 06:06:00,15.7,11.7,30.34,North,355,2.0,2.0,84,0.00,,---,0.00,0.00,VWS V14.01,2013-01-01 12:06:00,
2013-01-01 06:11:00,15.6,11.6,30.35,North,355,0.0,0.0,84,0.00,,---,0.00,0.00,VWS V14.01,2013-01-01 12:11:00,
2013-01-01 06:16:00,15.5,11.5,30.36,North,355,0.0,0.0,84,0.00,,---,0.00,0.00,VWS V14.01,2013-01-01 12:16:00,
2013-01-01 06:21:00,15.4,11.4,30.35,North,355,0.0,2.0,84,0.00,,---,0.00,0.00,VWS V14.01,2013-01-01 12:21:00,
2013-01-01 06:26:00,15.2,11.2,30.35,North,355,3.0,3.0,84,0.00,,---,0.00,0.00,VWS V14.01,2013-01-01 12:26:00,
2013-01-01 06:31:00,15.2,11.2,30.35,NNW,346,0.0,0.0,84,0.00,,---,0.00,0.00,VWS V14.01,2013-01-01 12:31:00,
2013-01-01 06:36:00,15.1,11.1,30.35,NNW,341,0.0,0.0,84,0.00,,---,0.00,0.00,VWS V14.01,2013-01-01 12:36:00,
2013-01-01 06:41:00,15.0,11.1,30.34,North,360,3.0,4.0,84,0.00,,---,0.00,0.00,VWS V14.01,2013-01-01 12:41:00,
2013-01-01 06:46:00,14.9,10.9,30.34,NNE,28,2.0,3.0,84,0.00,,---,0.00,0.00,VWS V14.01,2013-01-01 12:46:00,
2013-01-01 06:51:00,14.8,10.9,30.33,North,350,1.0,4.0,84,0.00,,---,0.00,0.00,VWS V14.01,2013-01-01 12:51:00,
2013-01-01 06:56:00,14.6,10.7,30.33,NNW,344,2.0,3.0,84,0.00,,---,0.00,0.00,VWS V14.01,2013-01-01 12:56:00,
2013-01-01 07:01:00,14.5,10.6,30.33,NNW,348,1.0,3.0,84,0.00,,---,0.00,0.00,VWS V14.01,2013-01-01 13:01:00,
2013-01-01 07:06:00,14.3,10.4,30.33,North,360,2.0,2.0,84,0.00,,---,0.00,0.00,VWS V14.01,2013-01-01 13:06:00,
2013-01-01 07:11:00,14.1,10.2,30.33,North,355,1.0,1.0,84,0.00,,---,0.00,0.00,VWS V14.01,2013-01-01 13:11:00,
2013-01-01 07:16:00,13.9,10.0,30.33,North,355,1.0,2.0,84,0.00,,---,0.00,0.00,VWS V14.01,2013-01-01 13:16:00,
2013-01-01 07:21:00,13.8,9.9,30.34,North,355,0.0,1.0,84,0.00,,---,0.00,0.00,VWS V14.01,2013-01-01 13:21:00,
2013-01-01 07:26:00,13.9,10.2,30.36,North,355,0.0,0.0,85,0.00,,---,0.00,0.00,VWS V14.01,2013-01-01 13:26:00,
2013-01-01 07:31:00,14.0,10.3,30.38,North,355,0.0,0.0,85,0.00,,---,0.00,0.00,VWS V14.01,2013-01-01 13:31:00,
2013-01-01 07:36:00,13.8,10.1,30.39,North,355,0.0,1.0,85,0.00,,---,0.00,0.00,VWS V14.01,2013-01-01 13:36:00,
2013-01-01 07:41:00,13.6,9.9,30.39,North,355,0.0,0.0,85,0.00,,---,0.00,5.00,VWS V14.01,2013-01-01 13:41:00,
2013-01-01 07:46:00,13.4,9.7,30.40,North,355,0.0,2.0,85,0.00,,---,0.00,5.00,VWS V14.01,2013-01-01 13:46:00,
2013-01-01 07:51:00,13.2,9.6,30.41,North,355,0.0,0.0,85,0.00,,---,0.00,7.00,VWS V14.01,2013-01-01 13:51:00,
2013-01-01 07:56:00,13.1,9.4,30.40,North,355,0.0,0.0,85,0.00,,---,0.00,11.00,VWS V14.01,2013-01-01 13:56:00,
2013-01-01 08:01:00,13.0,9.4,30.41,North,355,0.0,0.0,85,0.00,,---,0.00,16.00,VWS V14.01,2013-01-01 14:01:00,
2013-01-01 08:06:00,12.8,9.1,30.40,North,355,0.0,0.0,85,0.00,,---,0.00,35.00,VWS V14.01,2013-01-01 14:06:00,
2013-01-01 08:11:00,12.8,9.1,30.40,North,355,0.0,0.0,85,0.00,,---,0.00,30.00,VWS V14.01,2013-01-01 14:11:00,
2013-01-01 08:16:00,12.8,9.4,30.42,North,355,0.0,0.0,86,0.00,,---,0.00,74.00,VWS V14.01,2013-01-01 14:16:00,
2013-01-01 08:21:00,12.9,9.5,30.42,North,355,0.0,0.0,86,0.00,,---,0.00,83.00,VWS V14.01,2013-01-01 14:21:00,
2013-01-01 08:26:00,13.2,9.8,30.42,North,355,0.0,0.0,86,0.00,,---,0.00,47.00,VWS V14.01,2013-01-01 14:26:00,
2013-01-01 08:31:00,13.5,10.1,30.41,North,355,0.0,0.0,86,0.00,,---,0.00,47.00,VWS V14.01,2013-01-01 14:31:00,
2013-01-01 08:36:00,13.6,10.2,30.42,North,355,0.0,0.0,86,0.00,,---,0.00,26.00,VWS V14.01,2013-01-01 14:36:00,
2013-01-01 08:41:00,13.7,10.3,30.43,North,355,0.0,0.0,86,0.00,,---,0.00,70.00,VWS V14.01,2013-01-01 14:41:00,
2013-01-01 08:46:00,13.7,10.3,30.42,North,355,0.0,0.0,86,0.00,,---,0.00,25.00,VWS V14.01,2013-01-01 14:46:00,
2013-01-01 08:51:00,13.7,10.3,30.44,North,355,0.0,0.0,86,0.00,,---,0.00,58.00,VWS V14.01,2013-01-01 14:51:00,
2013-01-01 08:56:00,13.8,10.4,30.43,North,355,0.0,0.0,86,0.00,,---,0.00,76.00,VWS V14.01,2013-01-01 14:56:00,
2013-01-01 09:01:00,13.9,10.2,30.45,North,355,0.0,0.0,85,0.00,,---,0.00,100.00,VWS V14.01,2013-01-01 15:01:00,
2013-01-01 09:06:00,14.0,10.6,30.43,North,355,0.0,0.0,86,0.00,,---,0.00,127.00,VWS V14.01,2013-01-01 15:06:00,
2013-01-01 09:11:00,14.3,10.9,30.43,North,355,0.0,0.0,86,0.00,,---,0.00,193.00,VWS V14.01,2013-01-01 15:11:00,
2013-01-01 09:16:00,14.8,11.1,30.42,NW,317,1.0,4.0,85,0.00,,---,0.00,214.00,VWS V14.01,2013-01-01 15:16:00,
2013-01-01 09:21:00,15.0,11.3,30.43,NW,324,2.0,5.0,85,0.00,,---,0.00,188.00,VWS V14.01,2013-01-01 15:21:00,
2013-01-01 09:26:00,15.2,11.2,30.42,NNW,334,0.0,2.0,84,0.00,,---,0.00,202.00,VWS V14.01,2013-01-01 15:26:00,
2013-01-01 09:31:00,15.3,11.1,30.42,NNW,332,2.0,4.0,83,0.00,,---,0.00,234.00,VWS V14.01,2013-01-01 15:31:00,
2013-01-01 09:36:00,15.4,11.2,30.43,NNW,333,2.0,3.0,83,0.00,,---,0.00,174.00,VWS V14.01,2013-01-01 15:36:00,
2013-01-01 09:41:00,15.6,11.4,30.43,NW,314,2.0,3.0,83,0.00,,---,0.00,137.00,VWS V14.01,2013-01-01 15:41:00,
2013-01-01 09:46:00,15.8,11.3,30.44,NW,324,3.0,4.0,82,0.00,,---,0.00,213.00,VWS V14.01,2013-01-01 15:46:00,
2013-01-01 09:51:00,16.0,11.2,30.44,NW,322,3.0,3.0,81,0.00,,---,0.00,239.00,VWS V14.01,2013-01-01 15:51:00,
2013-01-01 09:56:00,16.2,11.1,30.44,WNW,300,1.0,2.0,80,0.00,,---,0.00,264.00,VWS V14.01,2013-01-01 15:56:00,
2013-01-01 10:01:00,16.4,11.3,30.46,WNW,299,2.0,3.0,80,0.00,,---,0.00,304.00,VWS V14.01,2013-01-01 16:01:00,
2013-01-01 10:06:00,16.6,11.2,30.45,WNW,300,1.0,1.0,79,0.00,,---,0.00,311.00,VWS V14.01,2013-01-01 16:06:00,
2013-01-01 10:11:00,16.9,11.5,30.45,WNW,300,0.0,0.0,79,0.00,,---,0.00,316.00,VWS V14.01,2013-01-01 16:11:00,
2013-01-01 10:15:00,17.1,11.4,30.45,WNW,302,2.0,4.0,78,0.00,,---,0.00,301.00,VWS V14.01,2013-01-01 16:15:00,
2013-01-01 10:20:00,17.2,11.2,30.44,NE,52,0.0,0.0,77,0.00,,---,0.00,327.00,VWS V14.01,2013-01-01 16:20:00,
2013-01-01 10:25:00,17.3,11.3,30.44,NNW,338,1.0,3.0,77,0.00,,---,0.00,325.00,VWS V14.01,2013-01-01 16:25:00,
2013-01-01 10:30:00,17.2,11.2,30.43,North,360,3.0,4.0,77,0.00,,---,0.00,294.00,VWS V14.01,2013-01-01 16:30:00,
2013-01-01 10:35:00,17.2,11.2,30.42,North,355,1.0,3.0,77,0.00,,---,0.00,350.00,VWS V14.01,2013-01-01 16:35:00,
2013-01-01 10:40:00,16.8,10.6,30.43,NNE,18,5.0,5.0,76,0.00,,---,0.00,364.00,VWS V14.01,2013-01-01 16:40:00,
2013-01-01 10:45:00,16.5,10.6,30.43,NNE,17,5.0,5.0,77,0.00,,---,0.00,285.00,VWS V14.01,2013-01-01 16:45:00,
2013-01-01 10:50:00,16.3,10.4,30.42,NE,42,0.0,0.0,77,0.00,,---,0.00,232.00,VWS V14.01,2013-01-01 16:50:00,
2013-01-01 10:55:00,16.4,10.5,30.43,NE,37,3.0,4.0,77,0.00,,---,0.00,258.00,VWS V14.01,2013-01-01 16:55:00,
2013-01-01 11:00:00,16.4,10.5,30.43,NNE,25,3.0,3.0,77,0.00,,---,0.00,188.00,VWS V14.01,2013-01-01 17:00:00,
2013-01-01 11:05:00,16.5,10.6,30.43,North,355,0.0,0.0,77,0.00,,---,0.00,285.00,VWS V14.01,2013-01-01 17:05:00,
2013-01-01 11:10:00,17.3,11.6,30.43,NW,311,0.0,0.0,78,0.00,,---,0.00,211.00,VWS V14.01,2013-01-01 17:10:00,
2013-01-01 11:15:00,17.9,11.9,30.43,NW,321,1.0,4.0,77,0.00,,---,0.00,216.00,VWS V14.01,2013-01-01 17:15:00,
2013-01-01 11:20:00,17.9,11.6,30.43,NNW,342,3.0,3.0,76,0.00,,---,0.00,236.00,VWS V14.01,2013-01-01 17:20:00,
2013-01-01 11:25:00,18.0,11.7,30.43,NNW,342,0.0,4.0,76,0.00,,---,0.00,243.00,VWS V14.01,2013-01-01 17:25:00,
2013-01-01 11:30:00,18.2,11.6,30.43,NW,313,0.0,4.0,75,0.00,,---,0.00,153.00,VWS V14.01,2013-01-01 17:30:00,
2013-01-01 11:35:00,18.4,11.8,30.42,NW,325,0.0,4.0,75,0.00,,---,0.00,195.00,VWS V14.01,2013-01-01 17:35:00,
2013-01-01 11:40:00,18.4,11.8,30.42,North,11,2.0,4.0,75,0.00,,---,0.00,135.00,VWS V14.01,2013-01-01 17:40:00,
2013-01-01 11:45:00,18.2,11.3,30.42,NW,325,0.0,5.0,74,0.00,,---,0.00,262.00,VWS V14.01,2013-01-01 17:45:00,
2013-01-01 11:50:00,18.3,11.4,30.42,North,5,0.0,5.0,74,0.00,,---,0.00,206.00,VWS V14.01,2013-01-01 17:50:00,
2013-01-01 11:55:00,18.2,11.3,30.42,NE,34,0.0,1.0,74,0.00,,---,0.00,123.00,VWS V14.01,2013-01-01 17:55:00,
2013-01-01 12:00:00,18.4,11.5,30.41,NNE,20,1.0,3.0,74,0.00,,---,0.00,225.00,VWS V14.01,2013-01-01 18:00:00,
2013-01-01 12:05:00,18.6,11.4,30.41,NNE,20,0.0,3.0,73,0.00,,---,0.00,265.00,VWS V14.01,2013-01-01 18:05:00,
2013-01-01 12:10:00,18.8,11.3,30.41,NE,51,0.0,4.0,72,0.00,,---,0.00,171.00,VWS V14.01,2013-01-01 18:10:00,
2013-01-01 12:15:00,18.6,11.1,30.41,NE,49,1.0,4.0,72,0.00,,---,0.00,207.00,VWS V14.01,2013-01-01 18:15:00,
2013-01-01 12:20:00,18.7,11.2,30.41,ENE,73,3.0,4.0,72,0.00,,---,0.00,246.00,VWS V14.01,2013-01-01 18:20:00,
2013-01-01 12:25:00,18.7,11.2,30.40,NE,53,0.0,5.0,72,0.00,,---,0.00,234.00,VWS V14.01,2013-01-01 18:25:00,
2013-01-01 12:30:00,19.3,12.1,30.40,NNE,23,0.0,3.0,73,0.00,,---,0.00,216.00,VWS V14.01,2013-01-01 18:30:00,
2013-01-01 12:35:00,19.6,11.7,30.40,NE,46,0.0,3.0,71,0.00,,---,0.00,200.00,VWS V14.01,2013-01-01 18:35:00,
2013-01-01 12:40:00,19.5,11.3,30.40,NNE,30,1.0,4.0,70,0.00,,---,0.00,185.00,VWS V14.01,2013-01-01 18:40:00,
2013-01-01 12:45:00,19.7,11.5,30.40,NE,43,1.0,3.0,70,0.00,,---,0.00,172.00,VWS V14.01,2013-01-01 18:45:00,
2013-01-01 12:50:00,19.9,11.7,30.40,NE,43,2.0,2.0,70,0.00,,---,0.00,156.00,VWS V14.01,2013-01-01 18:50:00,
2013-01-01 12:55:00,20.3,12.1,30.39,NNE,29,0.0,4.0,70,0.00,,---,0.00,144.00,VWS V14.01,2013-01-01 18:55:00,
2013-01-01 13:00:00,20.7,12.1,30.39,North,360,3.0,4.0,69,0.00,,---,0.00,134.00,VWS V14.01,2013-01-01 19:00:00,
2013-01-01 13:05:00,20.6,11.7,30.38,ENE,67,0.0,5.0,68,0.00,,---,0.00,127.00,VWS V14.01,2013-01-01 19:05:00,
2013-01-01 13:10:00,20.1,11.6,30.38,NE,40,1.0,5.0,69,0.00,,---,0.00,121.00,VWS V14.01,2013-01-01 19:10:00,
2013-01-01 13:15:00,20.5,12.3,30.38,NE,48,0.0,4.0,70,0.00,,---,0.00,114.00,VWS V14.01,2013-01-01 19:15:00,
2013-01-01 13:20:00,20.9,12.7,30.39,NE,46,0.0,4.0,70,0.00,,---,0.00,111.00,VWS V14.01,2013-01-01 19:20:00,
2013-01-01 13:25:00,21.2,12.6,30.39,NE,52,0.0,3.0,69,0.00,,---,0.00,104.00,VWS V14.01,2013-01-01 19:25:00,
2013-01-01 13:30:00,21.9,13.3,30.38,NE,52,0.0,0.0,69,0.00,,---,0.00,98.00,VWS V14.01,2013-01-01 19:30:00,
2013-01-01 13:35:00,22.2,12.9,30.38,NW,315,0.0,3.0,67,0.00,,---,0.00,97.00,VWS V14.01,2013-01-01 19:35:00,
2013-01-01 13:40:00,22.2,12.6,30.38,NW,313,2.0,4.0,66,0.00,,---,0.00,95.00,VWS V14.01,2013-01-01 19:40:00,
2013-01-01 13:45:00,22.1,12.5,30.38,NW,316,0.0,4.0,66,0.00,,---,0.00,93.00,VWS V14.01,2013-01-01 19:45:00,
2013-01-01 13:50:00,22.0,12.4,30.38,North,349,0.0,3.0,66,0.00,,---,0.00,91.00,VWS V14.01,2013-01-01 19:50:00,
2013-01-01 13:55:00,21.9,12.3,30.38,NNW,342,2.0,3.0,66,0.00,,---,0.00,88.00,VWS V14.01,2013-01-01 19:55:00,
2013-01-01 14:00:00,22.1,12.8,30.38,NNW,345,0.0,1.0,67,0.00,,---,0.00,95.00,VWS V14.01,2013-01-01 20:00:00,
2013-01-01 14:05:00,22.1,12.8,30.38,NNW,344,0.0,5.0,67,0.00,,---,0.00,105.00,VWS V14.01,2013-01-01 20:05:00,
2013-01-01 14:10:00,21.9,12.6,30.38,NW,321,2.0,5.0,67,0.00,,---,0.00,95.00,VWS V14.01,2013-01-01 20:10:00,
2013-01-01 14:15:00,21.5,11.9,30.39,NNW,327,1.0,4.0,66,0.00,,---,0.00,102.00,VWS V14.01,2013-01-01 20:15:00,
2013-01-01 14:20:00,21.1,11.9,30.38,NW,317,3.0,4.0,67,0.00,,---,0.00,113.00,VWS V14.01,2013-01-01 20:20:00,
2013-01-01 14:25:00,21.0,12.1,30.38,NW,317,0.0,1.0,68,0.00,,---,0.00,102.00,VWS V14.01,2013-01-01 20:25:00,
2013-01-01 14:30:00,21.0,12.1,30.39,NW,317,0.0,0.0,68,0.00,,---,0.00,104.00,VWS V14.01,2013-01-01 20:30:00,
2013-01-01 14:35:00,20.9,12.0,30.39,NW,317,0.0,2.0,68,0.00,,---,0.00,98.00,VWS V14.01,2013-01-01 20:35:00,
2013-01-01 14:40:00,20.9,12.0,30.39,North,355,0.0,0.0,68,0.00,,---,0.00,98.00,VWS V14.01,2013-01-01 20:40:00,
2013-01-01 14:45:00,20.7,11.8,30.39,North,355,0.0,0.0,68,0.00,,---,0.00,102.00,VWS V14.01,2013-01-01 20:45:00,
2013-01-01 14:50:00,20.8,12.2,30.39,North,355,0.0,0.0,69,0.00,,---,0.00,100.00,VWS V14.01,2013-01-01 20:50:00,
2013-01-01 14:55:00,20.9,12.0,30.39,North,355,0.0,0.0,68,0.00,,---,0.00,97.00,VWS V14.01,2013-01-01 20:55:00,
2013-01-01 15:00:00,21.0,12.1,30.39,North,355,0.0,0.0,68,0.00,,---,0.00,81.00,VWS V14.01,2013-01-01 21:00:00,
2013-01-01 15:05:00,21.1,12.2,30.39,North,350,0.0,2.0,68,0.00,,---,0.00,84.00,VWS V14.01,2013-01-01 21:05:00,
2013-01-01 15:10:00,21.1,11.9,30.39,North,350,0.0,2.0,67,0.00,,---,0.00,83.00,VWS V14.01,2013-01-01 21:10:00,
2013-01-01 15:15:00,21.2,12.3,30.39,North,350,0.0,0.0,68,0.00,,---,0.00,107.00,VWS V14.01,2013-01-01 21:15:00,
2013-01-01 15:20:00,21.3,12.4,30.39,North,350,0.0,1.0,68,0.00,,---,0.00,98.00,VWS V14.01,2013-01-01 21:20:00,
2013-01-01 15:25:00,21.5,12.6,30.39,North,349,0.0,2.0,68,0.00,,---,0.00,105.00,VWS V14.01,2013-01-01 21:25:00,
2013-01-01 15:30:00,21.7,13.4,30.39,North,350,0.0,0.0,70,0.00,,---,0.00,109.00,VWS V14.01,2013-01-01 21:30:00,
2013-01-01 15:35:00,21.8,13.5,30.39,NNW,346,0.0,2.0,70,0.00,,---,0.00,81.00,VWS V14.01,2013-01-01 21:35:00,
2013-01-01 15:40:00,21.6,13.3,30.40,West,280,2.0,4.0,70,0.00,,---,0.00,91.00,VWS V14.01,2013-01-01 21:40:00,
2013-01-01 15:45:00,21.5,13.2,30.40,West,280,0.0,3.0,70,0.00,,---,0.00,81.00,VWS V14.01,2013-01-01 21:45:00,
2013-01-01 15:50:00,21.4,13.5,30.40,West,280,2.0,3.0,71,0.00,,---,0.00,72.00,VWS V14.01,2013-01-01 21:50:00,
2013-01-01 15:55:00,21.1,13.5,30.40,West,278,0.0,4.0,72,0.00,,---,0.00,65.00,VWS V14.01,2013-01-01 21:55:00,
2013-01-01 16:00:00,20.9,13.6,30.40,West,278,0.0,2.0,73,0.00,,---,0.00,56.00,VWS V14.01,2013-01-01 22:00:00,
2013-01-01 16:05:00,20.6,13.6,30.40,West,277,0.0,3.0,74,0.00,,---,0.00,54.00,VWS V14.01,2013-01-01 22:05:00,
2013-01-01 16:10:00,20.4,13.4,30.40,West,278,0.0,2.0,74,0.00,,---,0.00,47.00,VWS V14.01,2013-01-01 22:10:00,
2013-01-01 16:15:00,20.3,13.0,30.40,West,278,0.0,2.0,73,0.00,,---,0.00,39.00,VWS V14.01,2013-01-01 22:15:00,
2013-01-01 16:20:00,20.2,13.2,30.40,West,278,0.0,2.0,74,0.00,,---,0.00,30.00,VWS V14.01,2013-01-01 22:20:00,
2013-01-01 16:25:00,20.0,13.1,30.40,West,278,0.0,3.0,74,0.00,,---,0.00,21.00,VWS V14.01,2013-01-01 22:25:00,
2013-01-01 16:30:00,19.8,12.9,30.40,West,265,0.0,4.0,74,0.00,,---,0.00,16.00,VWS V14.01,2013-01-01 22:30:00,
2013-01-01 16:35:00,19.7,12.8,30.40,West,265,0.0,0.0,74,0.00,,---,0.00,12.00,VWS V14.01,2013-01-01 22:35:00,
2013-01-01 16:40:00,19.6,12.7,30.40,West,265,0.0,3.0,74,0.00,,---,0.00,9.00,VWS V14.01,2013-01-01 22:40:00,
2013-01-01 16:45:00,19.4,12.8,30.40,West,265,0.0,3.0,75,0.00,,---,0.00,7.00,VWS V14.01,2013-01-01 22:45:00,
2013-01-01 16:50:00,19.3,12.7,30.39,West,265,0.0,0.0,75,0.00,,---,0.00,5.00,VWS V14.01,2013-01-01 22:50:00,
2013-01-01 16:55:00,19.2,13.2,30.40,West,265,0.0,0.0,77,0.00,,---,0.00,0.00,VWS V14.01,2013-01-01 22:55:00,
2013-01-01 17:00:00,19.1,13.1,30.40,West,265,0.0,0.0,77,0.00,,---,0.00,0.00,VWS V14.01,2013-01-01 23:00:00,
2013-01-01 17:05:00,19.0,13.3,30.40,West,265,0.0,0.0,78,0.00,,---,0.00,0.00,VWS V14.01,2013-01-01 23:05:00,
2013-01-01 17:10:00,18.9,13.2,30.40,West,264,0.0,0.0,78,0.00,,---,0.00,0.00,VWS V14.01,2013-01-01 23:10:00,
2013-01-01 17:15:00,18.9,13.5,30.40,West,264,0.0,0.0,79,0.00,,---,0.00,0.00,VWS V14.01,2013-01-01 23:15:00,
2013-01-01 17:20:00,18.8,13.4,30.40,West,265,0.0,0.0,79,0.00,,---,0.00,0.00,VWS V14.01,2013-01-01 23:20:00,
2013-01-01 17:25:00,18.7,13.3,30.40,West,265,0.0,0.0,79,0.00,,---,0.00,0.00,VWS V14.01,2013-01-01 23:25:00,
2013-01-01 17:30:00,18.5,13.1,30.40,West,265,0.0,0.0,79,0.00,,---,0.00,0.00,VWS V14.01,2013-01-01 23:30:00,
2013-01-01 17:35:00,18.4,13.0,30.41,West,265,0.0,0.0,79,0.00,,---,0.00,0.00,VWS V14.01,2013-01-01 23:35:00,
2013-01-01 17:39:00,18.3,12.9,30.40,West,264,0.0,0.0,79,0.00,,---,0.00,0.00,VWS V14.01,2013-01-01 23:39:00,
2013-01-01 17:44:00,18.2,13.1,30.40,West,264,0.0,0.0,80,0.00,,---,0.00,0.00,VWS V14.01,2013-01-01 23:44:00,
2013-01-01 17:49:00,18.1,13.0,30.40,West,265,0.0,1.0,80,0.00,,---,0.00,0.00,VWS V14.01,2013-01-01 23:49:00,
2013-01-01 17:54:00,18.0,12.9,30.41,West,265,0.0,0.0,80,0.00,,---,0.00,0.00,VWS V14.01,2013-01-01 23:54:00,
2013-01-01 17:59:00,17.9,12.8,30.41,West,264,1.0,3.0,80,0.00,,---,0.00,0.00,VWS V14.01,2013-01-01 23:59:00,
2013-01-01 18:04:00,17.8,12.7,30.41,West,265,3.0,3.0,80,0.00,,---,0.00,0.00,VWS V14.01,2013-01-02 00:04:00,
2013-01-01 18:09:00,17.7,12.3,30.41,West,264,0.0,3.0,79,0.00,,---,0.00,0.00,VWS V14.01,2013-01-02 00:09:00,
2013-01-01 18:14:00,17.7,12.3,30.41,West,265,1.0,1.0,79,0.00,,---,0.00,0.00,VWS V14.01,2013-01-02 00:14:00,
2013-01-01 18:19:00,17.7,12.0,30.41,West,265,0.0,1.0,78,0.00,,---,0.00,0.00,VWS V14.01,2013-01-02 00:19:00,
2013-01-01 18:24:00,17.6,11.9,30.41,West,265,0.0,3.0,78,0.00,,---,0.00,0.00,VWS V14.01,2013-01-02 00:24:00,
2013-01-01 18:29:00,17.5,11.8,30.41,West,265,0.0,2.0,78,0.00,,---,0.00,0.00,VWS V14.01,2013-01-02 00:29:00,
2013-01-01 18:34:00,17.4,11.7,30.41,West,265,0.0,3.0,78,0.00,,---,0.00,0.00,VWS V14.01,2013-01-02 00:34:00,
2013-01-01 18:39:00,17.3,11.6,30.41,West,264,0.0,0.0,78,0.00,,---,0.00,0.00,VWS V14.01,2013-01-02 00:39:00,
2013-01-01 18:44:00,17.2,11.8,30.40,West,264,0.0,0.0,79,0.00,,---,0.00,0.00,VWS V14.01,2013-01-02 00:44:00,
2013-01-01 18:49:00,17.2,11.8,30.40,West,265,0.0,0.0,79,0.00,,---,0.00,0.00,VWS V14.01,2013-01-02 00:49:00,
2013-01-01 18:54:00,17.1,11.7,30.40,West,265,0.0,0.0,79,0.00,,---,0.00,0.00,VWS V14.01,2013-01-02 00:54:00,
2013-01-01 18:59:00,17.1,11.7,30.40,West,265,0.0,0.0,79,0.00,,---,0.00,0.00,VWS V14.01,2013-01-02 00:59:00,
2013-01-01 19:04:00,17.1,12.0,30.40,West,265,0.0,0.0,80,0.00,,---,0.00,0.00,VWS V14.01,2013-01-02 01:04:00,
2013-01-01 19:09:00,17.0,11.9,30.40,West,265,0.0,0.0,80,0.00,,---,0.00,0.00,VWS V14.01,2013-01-02 01:09:00,
2013-01-01 19:14:00,16.9,11.8,30.40,West,265,0.0,0.0,80,0.00,,---,0.00,0.00,VWS V14.01,2013-01-02 01:14:00,
2013-01-01 19:19:00,16.8,11.7,30.40,West,265,0.0,0.0,80,0.00,,---,0.00,0.00,VWS V14.01,2013-01-02 01:19:00,
2013-01-01 19:24:00,16.6,11.2,30.40,West,265,0.0,0.0,79,0.00,,---,0.00,0.00,VWS V14.01,2013-01-02 01:24:00,
2013-01-01 19:29:00,16.4,11.0,30.40,West,264,0.0,0.0,79,0.00,,---,0.00,0.00,VWS V14.01,2013-01-02 01:29:00,
2013-01-01 19:34:00,16.2,11.1,30.39,West,265,0.0,0.0,80,0.00,,---,0.00,0.00,VWS V14.01,2013-01-02 01:34:00,
2013-01-01 19:39:00,16.1,11.0,30.39,West,265,0.0,0.0,80,0.00,,---,0.00,0.00,VWS V14.01,2013-01-02 01:39:00,
2013-01-01 19:44:00,16.0,10.9,30.39,West,265,0.0,0.0,80,0.00,,---,0.00,0.00,VWS V14.01,2013-01-02 01:44:00,
2013-01-01 19:49:00,15.8,10.7,30.39,West,265,0.0,0.0,80,0.00,,---,0.00,0.00,VWS V14.01,2013-01-02 01:49:00,
2013-01-01 19:54:00,15.7,10.6,30.40,West,265,0.0,0.0,80,0.00,,---,0.00,0.00,VWS V14.01,2013-01-02 01:54:00,
2013-01-01 19:59:00,15.5,10.4,30.40,West,265,0.0,0.0,80,0.00,,---,0.00,0.00,VWS V14.01,2013-01-02 01:59:00,
2013-01-01 20:04:00,15.6,10.8,30.39,West,265,0.0,0.0,81,0.00,,---,0.00,0.00,VWS V14.01,2013-01-02 02:04:00,
2013-01-01 20:09:00,15.5,10.7,30.39,West,265,0.0,0.0,81,0.00,,---,0.00,0.00,VWS V14.01,2013-01-02 02:09:00,
2013-01-01 20:14:00,15.5,11.0,30.40,West,264,0.0,0.0,82,0.00,,---,0.00,0.00,VWS V14.01,2013-01-02 02:14:00,
2013-01-01 20:19:00,15.4,10.9,30.40,West,264,0.0,0.0,82,0.00,,---,0.00,0.00,VWS V14.01,2013-01-02 02:19:00,
2013-01-01 20:24:00,15.3,10.8,30.40,West,265,0.0,0.0,82,0.00,,---,0.00,0.00,VWS V14.01,2013-01-02 02:24:00,
2013-01-01 20:29:00,15.2,10.7,30.40,West,265,0.0,0.0,82,0.00,,---,0.00,0.00,VWS V14.01,2013-01-02 02:29:00,
2013-01-01 20:34:00,15.1,10.6,30.40,West,265,0.0,0.0,82,0.00,,---,0.00,0.00,VWS V14.01,2013-01-02 02:34:00,
2013-01-01 20:39:00,15.2,11.0,30.40,West,265,0.0,0.0,83,0.00,,---,0.00,0.00,VWS V14.01,2013-01-02 02:39:00,
2013-01-01 20:44:00,15.1,10.9,30.40,West,264,0.0,0.0,83,0.00,,---,0.00,0.00,VWS V14.01,2013-01-02 02:44:00,
2013-01-01 20:49:00,14.9,10.7,30.40,West,265,0.0,0.0,83,0.00,,---,0.00,0.00,VWS V14.01,2013-01-02 02:49:00,
2013-01-01 20:54:00,14.8,10.6,30.40,West,265,0.0,1.0,83,0.00,,---,0.00,0.00,VWS V14.01,2013-01-02 02:54:00,
2013-01-01 20:59:00,14.7,10.5,30.40,West,265,0.0,0.0,83,0.00,,---,0.00,0.00,VWS V14.01,2013-01-02 02:59:00,
2013-01-01 21:04:00,14.6,10.4,30.40,West,265,0.0,3.0,83,0.00,,---,0.00,0.00,VWS V14.01,2013-01-02 03:04:00,
2013-01-01 21:09:00,14.6,10.7,30.39,West,264,0.0,0.0,84,0.00,,---,0.00,0.00,VWS V14.01,2013-01-02 03:09:00,
2013-01-01 21:14:00,14.6,10.7,30.39,West,265,0.0,0.0,84,0.00,,---,0.00,0.00,VWS V14.01,2013-01-02 03:14:00,
2013-01-01 21:19:00,14.5,10.6,30.40,West,265,0.0,0.0,84,0.00,,---,0.00,0.00,VWS V14.01,2013-01-02 03:19:00,
2013-01-01 21:24:00,14.5,10.6,30.40,West,265,0.0,1.0,84,0.00,,---,0.00,0.00,VWS V14.01,2013-01-02 03:24:00,
2013-01-01 21:29:00,14.5,10.6,30.40,West,265,0.0,2.0,84,0.00,,---,0.00,0.00,VWS V14.01,2013-01-02 03:29:00,
2013-01-01 21:34:00,14.4,10.5,30.40,West,265,0.0,1.0,84,0.00,,---,0.00,0.00,VWS V14.01,2013-01-02 03:34:00,
2013-01-01 21:39:00,14.4,10.5,30.40,West,265,0.0,0.0,84,0.00,,---,0.00,0.00,VWS V14.01,2013-01-02 03:39:00,
2013-01-01 21:44:00,14.4,10.5,30.40,West,264,0.0,2.0,84,0.00,,---,0.00,0.00,VWS V14.01,2013-01-02 03:44:00,
2013-01-01 21:49:00,14.5,10.6,30.40,West,265,0.0,0.0,84,0.00,,---,0.00,0.00,VWS V14.01,2013-01-02 03:49:00,
2013-01-01 21:54:00,14.5,10.6,30.40,West,265,0.0,3.0,84,0.00,,---,0.00,0.00,VWS V14.01,2013-01-02 03:54:00,
2013-01-01 21:59:00,14.5,10.6,30.40,West,265,0.0,0.0,84,0.00,,---,0.00,0.00,VWS V14.01,2013-01-02 03:59:00,
2013-01-01 22:04:00,14.4,10.5,30.40,West,265,0.0,0.0,84,0.00,,---,0.00,0.00,VWS V14.01,2013-01-02 04:04:00,
2013-01-01 22:09:00,14.4,10.5,30.40,West,265,0.0,0.0,84,0.00,,---,0.00,0.00,VWS V14.01,2013-01-02 04:09:00,
2013-01-01 22:14:00,14.4,10.5,30.40,West,265,0.0,0.0,84,0.00,,---,0.00,0.00,VWS V14.01,2013-01-02 04:14:00,
2013-01-01 22:19:00,14.4,10.5,30.39,West,265,0.0,0.0,84,0.00,,---,0.00,0.00,VWS V14.01,2013-01-02 04:19:00,
2013-01-01 22:24:00,14.5,10.6,30.40,West,265,0.0,0.0,84,0.00,,---,0.00,0.00,VWS V14.01,2013-01-02 04:24:00,
2013-01-01 22:29:00,14.5,10.6,30.39,West,265,0.0,0.0,84,0.00,,---,0.00,0.00,VWS V14.01,2013-01-02 04:29:00,
2013-01-01 22:34:00,14.7,10.8,30.39,West,264,0.0,0.0,84,0.00,,---,0.00,0.00,VWS V14.01,2013-01-02 04:34:00,
2013-01-01 22:39:00,14.7,10.8,30.40,West,265,0.0,0.0,84,0.00,,---,0.00,0.00,VWS V14.01,2013-01-02 04:39:00,
2013-01-01 22:44:00,14.9,11.2,30.40,West,265,0.0,0.0,85,0.00,,---,0.00,0.00,VWS V14.01,2013-01-02 04:44:00,
2013-01-01 22:49:00,15.2,11.5,30.40,West,265,0.0,0.0,85,0.00,,---,0.00,0.00,VWS V14.01,2013-01-02 04:49:00,
2013-01-01 22:54:00,15.0,11.1,30.40,West,265,0.0,0.0,84,0.00,,---,0.00,0.00,VWS V14.01,2013-01-02 04:54:00,
2013-01-01 22:59:00,14.7,10.8,30.39,West,264,0.0,0.0,84,0.00,,---,0.00,0.00,VWS V14.01,2013-01-02 04:59:00,
2013-01-01 23:00:00,14.7,10.8,30.39,West,264,0.0,0.0,84,0.00,,---,0.00,0.00,VWS V14.01,2013-01-02 05:00:00,
2013-01-01 23:01:00,14.6,10.7,30.39,West,265,0.0,0.0,84,0.00,,---,0.00,0.00,VWS V14.01,2013-01-02 05:01:00,
2013-01-01 23:06:00,14.5,10.6,30.39,West,265,0.0,0.0,84,0.00,,---,0.00,0.00,VWS V14.01,2013-01-02 05:06:00,
2013-01-01 23:11:00,14.3,10.1,30.39,West,265,0.0,0.0,83,0.00,,---,0.00,0.00,VWS V14.01,2013-01-02 05:11:00,
2013-01-01 23:16:00,14.3,10.4,30.39,West,265,0.0,0.0,84,0.00,,---,0.00,0.00,VWS V14.01,2013-01-02 05:16:00,
2013-01-01 23:21:00,14.3,10.1,30.40,West,265,0.0,0.0,83,0.00,,---,0.00,0.00,VWS V14.01,2013-01-02 05:21:00,
2013-01-01 23:26:00,14.1,10.2,30.39,West,264,0.0,0.0,84,0.00,,---,0.00,0.00,VWS V14.01,2013-01-02 05:26:00,
2013-01-01 23:31:00,14.1,10.2,30.39,West,265,0.0,0.0,84,0.00,,---,0.00,0.00,VWS V14.01,2013-01-02 05:31:00,
2013-01-01 23:35:00,14.1,10.2,30.39,West,265,0.0,0.0,84,0.00,,---,0.00,0.00,VWS V14.01,2013-01-02 05:35:00,
2013-01-01 23:40:00,14.2,10.3,30.38,West,265,0.0,0.0,84,0.00,,---,0.00,0.00,VWS V14.01,2013-01-02 05:40:00,
2013-01-01 23:45:00,14.1,10.2,30.38,West,264,0.0,0.0,84,0.00,,---,0.00,0.00,VWS V14.01,2013-01-02 05:45:00,
2013-01-01 23:50:00,14.0,10.1,30.39,West,264,0.0,0.0,84,0.00,,---,0.00,0.00,VWS V14.01,2013-01-02 05:50:00,
2013-01-01 23:55:00,14.0,10.1,30.39,West,265,0.0,0.0,84,0.00,,---,0.00,0.00,VWS V14.01,2013-01-02 05:55:00,